Location: Yamada Observatory
(36.7980°N, 119.2990°W)
Time: 16:37:37
(UTC-08:00)

ISS - Visible Passes

Search period start: 21 January 2018 00:00
Search period end: 31 January 2018 00:00
Orbit: 402 x 407 km, 51.6° (Epoch: 22 January)

Date Brightness Start Highest point End Pass type
(mag) Time Alt. Az. Time Alt. Az. Time Alt. Az.
22 Jan -1.0 19:25:31 10° SW 19:26:11 15° SW 19:26:11 15° SW visible
23 Jan -2.9 18:33:37 10° SSW 18:36:32 31° SE 18:36:33 31° SE visible
24 Jan -1.8 17:42:22 10° SSE 17:44:23 15° SE 17:46:23 10° E visible
24 Jan -2.0 19:17:27 10° WSW 19:19:30 31° W 19:19:30 31° W visible
25 Jan -3.9 18:24:58 10° SW 18:28:13 90° NNW 18:29:40 30° NE visible
26 Jan -1.7 19:09:57 10° W 19:12:25 21° NNW 19:12:25 21° NNW visible
27 Jan -2.5 18:16:59 10° WSW 18:20:01 35° NW 18:22:25 14° NNE visible
28 Jan -1.1 19:03:07 10° NW 19:04:33 12° NNW 19:04:59 12° NNW visible
29 Jan -1.5 18:09:34 10° WNW 18:11:55 18° NNW 18:14:15 10° NNE visible
